Location: Bennemühlen
(52.5740°N, 9.7135°E)
Time: 03:10:53
(UTC+00:00)

A-11 Canister half - Pass Details

Date: 20 February 2026
Orbit: 1512 x 1687 km, 47.2° (Epoch: 7 March)

Event Time Altitude Azimuth Distance (km) Brightness Sun altitude
Rises 00:12:26 0° 276° (W) 4,918 - -47.7°
Reaches altitude 10° 00:15:42 10° 273° (W) 3,913 - -47.6°
Maximum altitude 00:25:20 56° 199° (SSW) 1,873 - -47.2°
Drops below altitude 10° 00:34:38 10° 124° (SE) 3,775 - -46.7°
Sets 00:37:43 0° 121° (ESE) 4,735 - -46.5°
